Theta_e
295 288 286 286 288 289 291 292 291 290 291 291 291 290 289 290 290 292 294 295 298 296 295 295 296 298 310 315 318 324 326 325 323 323 323 324 325 325 325 326 326 327 328 330 331 331 332 333 334 336 336 336 336 335 336 336 337 337 335 334 332 334 334 334 334 334 334 332 332 333 332 329 330 330 331 331 332 332 333 333 333 333 333 334 333 332
294 287 287 289 291 291 291 291 292 291 291 291 291 290 289 290 289 292 294 295 297 296 295 296 296 298 309 315 318 322 323 321 322 322 322 324 325 325 325 325 327 328 331 330 329 330 331 332 334 334 334 334 332 332 333 335 335 335 333 333 332 333 334 334 334 334 334 335 334 333 331 330 329 329 327 327 329 329 329 329 330 330 330 331 330 330
287 286 289 291 292 292 292 291 292 291 290 290 290 290 289 290 292 293 294 295 295 295 295 295 294 297 309 315 318 319 320 322 325 324 323 324 324 324 325 326 327 327 327 327 328 329 330 331 332 333 333 333 333 332 330 331 333 332 332 332 332 333 332 333 334 334 334 336 337 334 332 330 327 327 327 327 327 327 326 327 326 325 324 325 326 326
284 287 291 293 292 291 290 291 290 290 290 290 289 289 288 291 290 287 291 304 301 294 298 298 294 303 311 315 317 319 320 323 326 327 327 327 325 325 325 326 326 326 325 325 326 327 329 330 330 331 331 331 330 329 329 332 332 331 331 332 331 332 332 333 335 336 336 336 337 335 332 330 327 323 324 324 325 325 323 322 323 322 322 322 324 324
286 289 293 293 292 291 289 290 289 289 288 290 289 289 290 289 291 292 292 306 307 306 306 301 298 302 308 308 310 317 322 322 324 325 326 328 328 328 329 328 328 326 326 326 326 327 329 329 329 330 331 331 328 330 331 332 331 331 332 331 331 332 333 334 335 334 334 332 330 327 325 325 323 323 323 323 321 322 322 320 320 320 321 322 323 323
288 291 293 292 291 291 290 288 289 289 287 289 290 290 290 291 291 294 303 297 295 297 304 298 290 293 303 307 308 314 316 317 322 321 323 325 326 327 325 326 328 329 329 327 326 327 329 329 329 330 330 329 329 330 331 332 332 333 332 331 331 332 333 333 334 333 332 330 327 324 321 321 322 320 321 322 319 319 319 317 319 320 321 322 322 321
290 292 291 291 290 290 289 289 290 290 287 287 289 292 291 291 294 299 299 294 290 288 299 307 288 286 304 303 309 312 314 315 319 320 321 323 324 324 325 326 327 328 328 327 328 328 328 328 328 328 328 329 329 329 330 332 332 332 331 331 332 333 333 333 333 332 333 330 329 327 327 327 325 323 321 321 320 319 317 319 318 319 321 321 320 321
290 291 290 290 290 289 288 287 290 290 288 286 292 292 291 290 291 295 298 294 295 303 305 305 298 291 295 301 309 312 311 313 314 317 319 321 323 323 325 326 327 327 328 327 326 328 329 329 328 327 329 329 329 329 330 331 331 331 331 332 333 334 332 333 333 333 333 332 330 329 328 328 325 321 318 318 316 317 318 317 318 319 319 319 320 320
290 289 289 288 289 289 288 290 291 292 288 289 292 292 291 292 291 291 294 296 300 296 294 299 302 290 292 302 309 311 307 308 311 315 318 320 322 323 324 325 327 327 328 327 326 327 329 328 329 329 329 330 330 330 331 331 332 332 332 332 333 332 332 333 333 333 334 332 330 326 323 321 320 319 318 317 318 317 318 317 317 318 317 318 319 319
290 292 292 291 289 288 291 292 292 292 288 291 293 293 293 293 292 292 291 293 300 295 288 296 299 288 292 300 305 309 306 306 308 313 317 318 321 323 324 325 326 327 328 327 327 328 329 330 330 330 330 331 330 330 332 333 332 331 331 331 332 331 332 333 332 332 331 330 326 323 322 319 318 318 317 318 316 317 317 316 316 316 317 317 317 318
290 296 297 291 289 292 293 293 292 292 293 294 293 292 291 291 292 292 292 292 296 289 290 298 300 293 286 297 302 303 304 308 310 313 316 318 320 322 324 325 325 326 327 327 327 328 329 331 331 330 329 330 330 330 331 331 331 331 330 331 330 331 332 333 331 331 331 330 326 323 321 320 318 317 317 317 316 316 316 315 315 315 316 317 316 316
289 291 291 292 294 294 295 291 293 294 293 292 291 289 289 289 291 290 289 292 284 283 292 299 299 296 286 293 303 309 313 312 312 312 314 316 318 320 323 324 325 326 327 327 327 327 329 329 329 330 329 329 330 330 330 331 331 330 330 330 330 330 333 333 332 331 330 329 326 323 321 320 319 319 318 317 315 316 315 315 315 315 315 315 315 315
285 287 291 291 296 293 292 291 290 293 291 291 290 289 284 283 284 280 286 280 282 283 288 295 300 294 292 298 303 309 312 313 314 315 316 317 318 320 322 324 325 325 327 327 326 326 327 328 328 327 328 329 329 329 330 330 330 330 330 331 330 329 331 332 332 330 329 327 325 324 322 321 320 320 319 318 316 316 315 315 314 315 314 314 313 313
284 288 288 290 292 295 294 288 287 287 289 289 288 287 283 280 279 276 281 284 284 286 291 294 301 293 299 302 305 308 312 315 316 317 318 319 320 321 322 324 325 325 325 327 327 327 327 327 328 328 329 329 329 329 329 329 328 328 329 331 330 329 330 331 331 330 328 327 324 324 323 321 319 319 318 317 315 316 315 315 315 315 314 313 313 313
277 279 285 288 286 294 293 293 292 290 290 289 292 290 286 285 281 277 281 278 281 285 291 297 292 289 290 293 307 309 313 316 317 318 320 321 322 323 323 324 324 325 325 326 326 326 327 328 328 328 329 329 329 329 329 328 328 328 329 330 329 329 330 330 330 329 327 324 323 324 323 321 319 317 315 314 315 314 313 314 314 315 314 313 313 312
282 282 288 292 291 293 291 294 294 292 291 292 290 291 288 287 291 284 284 286 287 288 288 292 290 295 294 302 305 311 313 315 317 317 318 318 319 321 321 322 323 324 324 326 326 326 327 328 328 328 329 329 329 330 329 328 327 327 328 330 330 329 330 330 329 328 327 324 324 322 321 320 318 316 315 313 313 313 314 315 314 314 314 313 313 313
282 281 288 290 291 292 293 294 293 295 283 289 289 286 289 295 293 286 285 288 286 287 284 293 295 297 302 302 307 307 308 311 314 316 316 317 318 320 320 321 322 323 323 326 326 326 326 328 329 329 329 329 329 329 329 328 328 328 329 330 329 327 328 328 328 326 325 324 322 321 320 319 318 315 314 313 312 313 314 315 314 313 313 314 313 313
281 282 288 288 287 292 295 295 295 295 295 290 285 290 293 295 294 290 283 284 284 282 283 291 289 294 292 289 307 307 305 308 311 313 315 317 318 318 319 321 322 322 324 326 327 327 327 328 329 329 329 330 329 329 329 329 330 330 330 329 327 326 327 328 326 324 323 321 320 320 319 318 316 315 313 312 312 313 313 314 313 313 312 312 312 312
288 280 285 289 290 292 292 294 292 294 294 292 290 295 289 283 283 288 287 279 280 279 282 289 292 294 293 292 303 304 305 307 309 313 314 316 317 318 320 321 322 323 324 325 326 326 326 327 329 329 329 330 330 329 329 329 330 330 329 328 326 325 328 326 325 324 323 322 320 320 318 315 314 314 312 311 312 313 313 312 312 312 312 312 312 312
289 282 283 289 290 291 291 291 284 289 292 292 295 292 294 291 289 286 286 289 288 281 282 283 288 287 297 296 302 305 307 309 310 313 314 316 318 319 320 321 321 321 322 324 325 326 327 328 329 329 329 328 328 328 328 328 329 329 328 327 325 325 323 324 323 323 322 322 318 316 315 315 313 311 310 311 311 313 312 312 312 312 311 311 312 311
286 289 280 286 290 291 285 289 287 289 287 288 289 288 289 291 292 292 292 287 286 284 283 283 283 290 299 303 304 305 309 312 312 313 315 317 319 320 321 321 321 322 322 324 325 326 327 328 329 330 330 329 329 328 327 327 327 327 327 325 321 320 321 322 322 321 319 317 316 315 313 312 311 310 311 311 312 312 312 312 312 312 311 310 310 311
285 286 282 285 285 285 288 291 292 292 292 290 289 288 289 287 285 282 282 290 287 286 282 284 282 293 303 307 306 307 311 312 314 315 315 317 319 320 322 323 323 322 323 325 326 326 327 328 329 330 330 329 327 325 325 326 326 325 325 323 321 321 322 321 319 318 316 315 315 315 313 311 310 310 310 311 311 312 311 311 311 311 310 310 310 310
291 288 285 283 285 287 289 292 294 295 294 291 291 288 291 292 291 286 280 284 288 287 290 291 285 289 303 302 305 308 310 311 315 317 317 318 319 321 322 323 324 324 324 325 326 326 328 329 328 328 328 326 325 324 324 324 324 323 321 321 320 320 319 319 317 316 316 316 315 312 311 310 309 309 310 310 310 311 310 310 310 310 309 309 309 310
293 286 283 285 288 290 291 291 291 294 293 289 290 291 290 288 290 289 289 291 286 288 286 286 283 290 301 303 307 308 310 312 315 316 317 317 319 320 321 322 322 323 324 326 326 326 327 327 328 327 325 323 322 323 322 322 322 320 319 319 319 319 318 317 316 316 315 313 312 311 310 309 309 309 310 310 311 310 310 309 309 309 309 308 308 308
285 287 285 283 282 284 287 289 289 291 292 290 289 291 291 292 292 293 293 293 286 288 288 286 281 289 301 304 311 311 311 311 313 316 317 317 318 319 320 321 322 323 323 325 325 325 324 324 324 324 324 323 322 322 322 322 320 318 317 318 317 316 316 317 317 315 313 311 310 309 309 309 309 309 310 310 310 310 309 309 308 308 308 308 308 307
288 288 284 280 277 275 275 277 280 283 286 290 292 291 290 290 292 290 285 288 284 290 288 286 286 293 300 306 310 311 311 312 314 316 317 319 319 318 319 320 321 322 323 324 325 324 322 322 323 323 323 324 323 322 321 320 320 319 317 317 317 315 314 315 316 314 311 310 309 309 309 309 310 310 311 310 309 309 308 308 308 308 308 308 307 307
289 291 288 286 285 283 285 287 289 289 288 286 288 290 289 291 293 294 293 288 285 289 287 291 291 292 296 297 305 310 311 312 312 314 315 317 318 319 320 320 321 321 322 323 323 324 323 322 321 322 322 323 323 323 322 321 320 318 315 315 314 314 314 314 315 313 311 311 311 310 310 310 311 310 310 309 308 308 307 307 308 307 307 307 307 307
293 287 290 290 288 288 290 289 290 290 288 289 288 289 290 290 292 293 287 286 296 289 285 294 297 292 293 297 301 308 311 313 314 315 316 317 317 318 320 320 317 321 322 322 322 322 321 321 321 320 321 321 322 323 323 322 321 318 316 314 313 313 314 314 314 312 311 312 311 310 310 311 311 310 309 308 307 307 307 307 307 307 307 306 306 306
292 285 290 289 289 290 291 291 292 290 290 289 289 290 289 290 292 290 291 293 294 288 286 295 298 294 296 299 302 306 312 313 313 314 316 318 318 319 319 318 319 319 321 320 320 320 321 320 319 320 319 320 320 319 319 318 319 320 318 315 313 313 313 314 314 313 312 312 310 309 310 310 310 309 307 306 306 306 305 305 306 306 305 306 306 306
293 288 291 289 288 290 291 291 292 290 290 289 289 290 291 290 291 292 292 293 294 294 296 297 299 298 299 301 305 305 312 314 314 315 317 317 317 318 318 318 318 319 320 320 320 320 320 320 320 319 319 318 318 318 317 317 316 316 316 314 312 311 312 313 313 312 311 311 310 309 309 308 308 306 306 305 305 305 305 304 304 304 304 304 305 305
291 286 291 291 288 289 292 293 292 291 290 289 289 290 291 291 292 292 293 294 294 294 295 295 295 295 301 305 306 311 313 315 314 313 314 316 317 317 317 317 318 318 320 321 321 320 320 320 320 320 319 318 318 318 317 317 316 315 315 313 312 312 313 313 312 312 311 310 309 308 308 307 306 305 304 304 304 304 304 303 303 303 303 303 303 303
293 288 291 290 285 287 291 290 291 290 290 290 289 289 289 291 290 291 290 296 292 292 294 295 293 293 300 307 311 311 313 313 313 313 314 315 317 317 316 316 317 318 320 321 321 320 320 320 320 320 320 320 320 320 318 317 315 314 314 313 313 313 313 313 312 311 310 308 307 307 306 306 305 304 303 304 303 303 303 303 302 302 302 302 302 303
293 291 287 287 285 285 290 288 289 287 287 284 285 289 291 292 293 294 294 296 297 298 294 290 292 299 304 308 309 310 312 313 314 314 315 315 317 317 317 317 318 319 320 321 320 320 320 320 320 321 321 320 320 319 319 317 314 313 313 311 313 312 311 311 311 310 308 306 305 305 305 305 304 303 303 303 303 303 302 301 301 301 301 301 302 302
293 292 288 290 284 285 290 289 289 286 279 282 294 295 294 292 293 292 292 294 298 298 297 299 299 304 303 308 308 311 311 313 315 317 319 317 316 317 318 319 319 320 321 321 322 321 321 321 321 321 322 321 319 319 318 317 315 315 314 313 312 310 309 309 309 308 307 306 305 304 304 304 303 302 302 303 303 302 301 301 301 301 301 301 301 301
294 292 289 290 285 285 288 287 284 278 282 293 294 294 295 297 295 294 296 296 298 299 299 298 300 301 303 306 309 310 313 314 316 316 317 319 320 319 318 318 319 320 321 321 322 322 321 321 321 319 319 319 319 318 317 316 316 316 314 314 311 309 308 308 308 307 306 304 303 303 303 302 302 302 302 302 302 301 301 301 301 300 300 300 300 300
289 289 288 286 287 287 284 284 277 280 291 294 295 296 297 297 298 298 296 298 298 298 299 300 303 303 304 306 309 312 313 315 316 317 318 320 321 321 319 319 320 321 321 322 322 323 322 321 320 319 319 319 318 316 316 316 317 315 313 313 311 309 309 309 308 307 305 303 303 302 302 302 302 302 302 301 301 300 300 300 300 299 299 299 299 300
296 292 290 287 289 283 284 283 284 291 292 293 293 294 296 296 294 293 289 294 303 302 301 300 303 303 306 308 311 313 315 315 314 314 319 320 321 323 322 322 322 322 323 324 325 324 325 324 321 320 319 318 317 315 315 316 316 314 311 310 310 310 310 308 307 305 304 304 303 302 303 302 301 300 300 299 298 298 298 298 298 298 298 297 297 297
297 292 291 287 285 287 286 285 286 286 283 289 296 299 299 300 302 301 298 294 302 301 303 304 304 305 307 309 311 313 315 312 310 313 316 319 321 321 323 324 324 325 325 325 326 325 324 323 322 320 318 317 316 316 317 316 315 313 310 309 309 309 309 308 306 304 303 302 301 301 301 301 300 299 298 298 297 297 297 297 297 296 296 296 296 297
293 294 293 288 286 285 285 283 283 282 286 293 296 299 300 299 301 300 296 291 301 303 302 303 304 306 309 310 311 313 310 306 307 311 317 318 319 321 321 322 324 325 325 325 324 324 324 322 321 319 318 318 316 316 317 315 314 310 309 309 309 309 309 308 306 304 303 302 301 301 301 301 300 299 298 297 298 297 296 295 295 296 296 296 297 298
294 291 289 287 285 285 284 283 284 285 287 295 298 300 300 299 300 297 286 288 302 301 303 302 304 306 309 312 313 311 308 303 306 311 316 319 320 321 321 322 322 323 324 325 326 326 325 323 320 318 318 317 317 317 315 314 312 310 310 310 309 308 308 308 306 304 302 302 301 302 302 302 301 299 298 297 297 296 296 296 295 295 295 296 297 297
289 287 287 285 287 284 283 286 286 288 294 298 299 303 302 299 298 289 285 293 303 303 303 303 305 308 311 312 313 310 309 311 312 313 316 321 320 321 323 324 324 324 324 324 324 318 324 322 321 319 319 319 317 316 315 314 312 311 311 310 309 309 310 309 306 303 302 301 302 302 302 303 302 300 300 300 297 296 296 296 296 295 295 295 296 296
286 285 285 284 286 286 287 286 287 288 296 298 303 302 303 296 288 287 298 302 306 307 305 304 306 309 312 313 313 313 313 313 311 314 317 320 320 321 322 323 323 324 325 323 320 321 323 321 321 320 319 319 317 315 315 313 311 311 311 309 309 310 311 308 306 304 301 301 301 302 302 302 303 302 301 300 298 296 296 296 297 296 297 296 296 296
289 285 286 287 285 284 284 285 285 284 291 301 303 299 299 291 292 301 304 307 304 307 307 305 307 309 313 313 314 312 313 312 313 315 318 319 320 320 320 321 321 322 322 322 321 322 322 321 320 319 318 318 317 316 315 314 312 311 310 308 309 310 309 308 306 304 302 301 302 302 302 303 302 301 301 299 298 297 297 296 296 296 296 296 296 296
294 287 287 287 290 286 284 284 285 294 301 304 302 295 303 302 304 303 309 309 309 308 310 309 307 310 312 315 313 313 313 313 312 314 317 318 319 320 320 321 322 322 322 322 322 322 321 321 321 320 319 318 317 316 315 314 312 311 309 308 310 309 307 307 306 304 302 301 301 301 301 301 301 301 300 299 298 299 298 296 295 294 295 295 295 294
293 291 292 289 292 289 289 291 298 302 302 303 303 306 306 309 307 304 309 311 311 310 309 312 309 307 311 313 314 315 314 314 316 317 318 317 318 318 319 320 321 321 321 321 321 321 321 320 320 319 317 317 316 316 315 315 313 310 309 310 309 306 305 305 304 303 301 301 302 301 301 301 301 301 300 299 299 298 298 296 295 293 294 294 294 294
298 297 297 295 294 296 297 298 301 302 304 305 305 305 306 308 309 308 309 312 312 311 311 313 311 309 308 313 314 312 314 313 313 313 314 317 318 319 319 319 319 321 321 321 321 319 321 321 320 318 316 315 315 315 314 314 314 311 311 310 308 306 305 304 302 302 301 301 301 301 301 301 301 301 300 300 299 299 298 296 294 294 293 293 294 294
297 297 297 295 297 295 293 302 301 303 304 304 304 308 309 309 308 308 310 311 311 311 312 311 312 312 311 312 313 313 313 311 314 313 314 315 316 317 318 318 318 319 319 319 319 317 320 319 318 316 315 314 314 314 313 314 314 314 312 308 307 306 305 303 302 301 302 302 302 301 301 300 300 299 300 300 300 300 300 299 297 296 294 294 294 294
295 298 296 295 295 294 294 301 302 303 304 305 308 306 306 307 308 309 308 309 309 309 310 310 311 312 311 312 312 314 312 310 313 313 314 315 316 316 317 318 318 317 318 319 318 318 319 318 318 317 315 313 314 314 314 313 313 312 309 308 306 306 305 303 302 301 301 301 302 301 301 300 294 297 299 299 300 300 300 300 299 296 295 294 295 294
297 297 293 297 298 300 300 301 303 304 306 307 309 309 309 308 307 309 309 310 311 312 312 311 310 310 313 312 312 316 314 311 312 314 314 313 315 315 316 316 317 318 317 316 316 318 318 317 317 316 314 314 315 315 314 313 312 310 308 307 306 305 304 302 300 301 302 301 301 300 300 300 299 299 299 300 300 302 301 300 299 298 297 298 298 297
298 295 297 296 293 294 297 300 302 296 294 301 302 305 307 309 307 308 311 311 311 311 311 313 312 310 311 310 312 315 315 312 312 313 313 314 314 315 316 315 316 316 316 316 316 318 318 318 317 315 314 314 314 314 313 313 311 310 309 308 307 305 304 302 302 302 301 300 300 300 299 299 299 300 299 299 300 300 301 295 296 298 300 297 295 293
299 299 298 294 294 293 301 301 304 303 305 307 307 305 304 306 306 308 309 309 310 310 309 313 314 314 313 312 310 314 315 315 313 313 313 313 313 314 315 315 315 315 316 316 316 317 317 317 316 315 314 313 313 313 313 312 311 310 309 308 307 306 304 303 301 301 300 299 299 298 299 300 299 299 299 299 299 300 300 300 298 292 293 295 294 293
Wind_Speed
7 10 12 15 16 19 18 17 2 7 2 9 7 8 9 8 4 1 10 8 14 13 16 15 14 13 11 14 16 14 13 17 15 15 14 13 13 11 11 12 13 13 11 7 9 8 10 11 10 8 8 8 9 9 10 10 10 11 10 9 9 9 8 4 4 4 8 9 7 7 8 7 6 7 7 6 4 4 5 5 6 6 5 6 6 5
9 11 14 17 9 8 6 5 6 6 5 4 12 12 8 11 8 10 13 6 10 10 7 6 13 14 14 13 15 15 11 16 16 16 16 17 15 13 14 15 17 14 7 8 8 9 11 11 11 8 8 9 10 9 9 9 9 8 10 10 10 8 10 9 9 8 8 8 9 8 7 7 7 8 6 5 4 5 5 6 6 6 6 6 6 4
11 15 16 8 3 5 8 9 13 10 2 2 7 11 9 10 6 5 6 5 8 10 4 9 12 12 12 13 14 18 18 17 17 19 19 19 17 14 14 15 14 11 11 9 11 10 10 12 11 9 9 9 10 10 10 12 10 10 9 9 9 10 12 10 11 10 9 9 8 9 8 9 6 4 3 5 5 5 6 6 6 6 5 5 5 5
11 15 5 9 4 10 11 13 12 11 6 2 3 9 12 10 12 9 6 3 2 5 4 8 11 5 6 9 14 16 17 16 17 18 17 15 16 17 17 16 14 13 12 12 12 12 11 11 11 10 10 10 11 11 12 11 12 10 10 9 9 6 8 10 11 9 9 9 9 9 9 7 6 7 6 7 6 6 7 7 6 6 5 5 5 5
10 5 11 10 12 11 13 13 14 13 9 6 4 3 6 10 13 7 8 4 5 2 5 10 6 2 7 10 11 12 13 14 16 17 17 16 15 12 8 10 12 13 13 12 12 12 12 13 13 12 11 10 10 12 13 13 10 9 10 11 10 9 9 8 9 11 11 11 9 8 8 8 9 6 6 7 5 4 5 5 5 5 5 5 5 5
9 4 7 15 14 10 11 12 17 14 12 6 7 6 4 10 11 5 10 11 7 4 7 14 4 8 9 12 12 10 10 14 13 15 16 18 18 12 11 11 11 11 11 12 13 12 12 12 11 11 11 11 11 9 8 8 10 7 8 10 12 14 12 10 11 13 12 12 13 10 9 8 8 7 5 7 7 4 4 5 5 6 5 5 6 5
10 4 4 13 17 14 11 11 14 15 13 8 6 10 5 5 5 9 12 11 9 11 10 6 13 5 4 12 13 12 13 15 10 13 14 16 15 13 13 14 15 14 10 10 10 11 12 12 10 11 11 11 9 7 9 9 7 8 10 14 14 11 10 11 12 13 12 12 11 13 10 8 8 8 3 5 5 5 4 4 6 5 5 6 6 6
7 13 6 3 15 17 14 12 12 18 13 12 3 8 9 5 5 6 7 10 1 6 6 6 5 6 4 10 13 15 16 17 13 14 15 12 14 15 15 15 16 14 13 11 12 13 13 12 12 12 12 10 7 9 9 8 9 11 10 11 11 10 11 12 12 14 12 11 10 8 8 6 5 5 7 6 6 5 5 5 6 5 5 5 6 6
16 14 13 6 8 13 15 10 10 15 14 6 4 9 9 9 6 3 3 3 2 7 7 10 4 6 7 4 13 16 16 18 18 15 18 15 14 16 17 15 12 11 10 13 12 13 13 14 13 12 11 10 10 10 10 11 10 10 9 10 11 11 11 12 14 12 11 10 8 9 10 8 5 7 7 7 6 6 5 7 5 6 6 6 6 6
6 14 13 9 7 11 7 8 11 12 13 4 5 4 4 4 4 5 2 3 3 7 12 13 12 11 4 4 10 15 17 17 18 18 19 21 20 19 18 17 17 13 11 13 14 14 12 13 12 11 11 11 10 10 9 10 9 10 10 11 12 12 11 11 13 12 13 11 11 9 9 11 7 5 7 7 7 6 5 6 6 5 5 5 6 6
0 8 9 8 9 5 6 8 11 12 10 5 8 7 5 4 3 3 0 2 3 6 13 13 14 11 6 8 11 14 16 15 13 13 17 20 21 21 20 19 16 16 15 12 13 13 13 10 11 11 11 12 10 10 10 9 10 11 11 12 11 12 11 13 13 13 12 9 9 9 11 10 10 9 9 9 8 7 7 7 6 5 5 5 6 6
5 3 9 5 5 3 7 9 10 14 7 12 11 10 7 2 3 3 2 2 5 9 4 9 13 10 12 8 10 12 6 17 16 18 21 23 23 21 19 18 17 17 13 12 13 14 15 14 14 12 12 12 12 11 11 11 11 11 11 11 13 12 12 11 13 12 11 11 8 9 11 10 10 11 9 10 10 9 8 7 7 6 6 6 6 6
6 4 4 3 8 10 9 13 10 13 7 11 11 12 11 6 4 4 4 5 10 8 2 5 13 5 17 3 7 14 13 14 19 17 20 22 22 20 19 18 17 17 13 11 14 14 14 15 14 13 12 13 12 11 13 13 12 12 11 13 12 12 12 11 13 13 12 9 9 9 9 9 8 9 10 10 9 8 8 7 7 7 7 7 7 6
5 3 5 6 8 12 11 13 13 13 12 12 15 15 13 10 8 6 11 3 1 2 1 7 15 11 3 5 8 13 17 17 20 21 19 20 20 19 17 16 14 14 16 13 12 15 14 14 13 12 13 13 11 12 13 12 11 10 10 12 12 12 10 10 12 13 10 8 8 9 9 9 9 9 8 7 8 7 6 6 7 7 7 7 7 7
8 7 10 11 8 12 13 12 13 11 15 11 3 11 12 11 7 8 9 8 7 5 3 4 9 5 10 3 12 15 16 16 17 18 16 14 10 9 11 12 14 14 17 15 12 14 15 15 14 11 14 13 12 13 12 12 10 10 11 11 12 12 11 11 12 12 12 8 8 7 8 8 8 7 7 6 6 6 7 6 7 6 6 7 7 7
10 1 3 6 2 14 13 8 4 5 10 6 3 3 3 10 2 3 1 2 5 6 4 7 4 1 4 3 3 1 6 13 12 11 10 10 7 8 10 13 16 17 17 15 13 15 16 16 14 12 12 13 13 14 11 12 10 10 11 11 11 11 10 10 12 12 10 8 8 10 10 9 9 8 7 6 5 5 6 7 7 7 7 7 7 7
3 4 3 8 0 14 14 9 10 10 12 10 6 12 7 5 4 4 2 4 2 2 5 2 4 3 4 1 4 2 6 8 10 12 11 11 11 13 13 15 16 17 17 15 12 14 17 16 15 14 13 13 14 14 14 13 11 13 12 11 11 10 10 10 11 10 9 8 9 9 9 9 9 9 10 8 9 8 7 7 7 7 7 8 7 7
7 5 2 9 11 8 8 13 9 13 1 6 9 7 5 3 3 2 3 1 3 6 3 3 8 2 5 4 2 3 9 10 11 15 15 14 13 15 15 15 17 18 19 17 14 15 17 18 18 15 14 15 16 15 15 15 14 13 12 12 13 13 12 11 11 9 7 9 8 10 9 8 8 9 8 8 9 8 8 7 7 8 8 7 7 7
2 7 5 10 11 8 3 9 10 8 4 10 9 5 11 5 8 1 1 4 6 6 2 4 3 4 8 7 3 5 9 11 12 13 13 14 15 16 16 17 16 17 15 16 16 16 17 17 17 17 14 16 15 14 14 15 14 14 12 12 13 13 9 11 10 10 8 7 7 8 10 10 8 8 8 7 8 8 9 9 8 8 8 8 8 8
2 2 5 2 10 7 7 9 11 12 4 4 7 8 1 1 6 6 2 1 3 2 2 4 3 5 7 6 8 10 13 13 13 13 16 18 20 18 16 15 18 19 18 15 14 14 16 18 19 18 16 15 15 14 13 14 13 15 14 12 10 11 11 12 13 11 10 9 7 7 8 9 8 8 9 9 9 9 9 9 9 9 9 8 7 8
1 2 4 3 1 7 9 9 11 12 12 8 12 9 4 2 2 1 1 3 2 1 4 3 5 3 4 7 8 11 13 15 16 16 16 17 18 19 18 17 18 20 20 14 13 14 16 18 17 17 16 14 13 11 11 12 14 13 13 13 12 13 13 12 10 10 9 8 8 11 11 10 9 9 8 9 9 10 9 9 9 8 8 8 8 8
1 1 1 3 8 10 5 3 2 11 11 9 10 9 9 9 8 12 10 3 1 1 1 4 7 1 5 6 12 14 13 13 15 18 18 18 19 17 14 15 16 16 19 15 13 15 16 18 18 17 16 15 13 13 14 13 12 13 14 13 12 12 15 14 9 9 9 8 9 11 11 11 9 9 9 10 9 10 10 9 8 9 9 9 8 8
2 2 2 1 4 6 3 10 9 10 10 4 7 4 6 5 4 9 9 6 2 1 2 1 3 1 3 1 4 5 3 5 11 12 12 12 13 11 11 13 15 17 18 16 13 16 13 15 17 18 15 15 15 14 15 11 12 13 11 12 10 10 13 13 11 9 10 10 11 10 9 10 10 9 11 11 9 10 10 9 9 9 9 9 8 7
3 2 2 1 1 4 3 4 3 6 9 5 6 4 8 12 13 7 4 3 6 3 3 1 1 3 2 1 3 3 3 4 7 7 5 4 6 9 12 15 17 17 18 16 13 13 13 13 15 16 16 13 14 16 16 13 12 11 11 11 9 9 12 11 11 12 11 10 10 11 11 10 10 11 11 11 9 11 10 9 9 9 9 9 8 8
2 2 2 3 6 6 4 4 5 2 9 9 10 9 10 5 8 1 2 2 7 11 7 3 4 3 4 1 3 3 6 7 10 11 10 9 9 11 14 15 15 16 17 17 15 12 13 13 15 15 16 14 13 14 15 15 12 10 11 11 10 8 10 12 11 12 12 11 12 11 11 12 11 11 11 11 10 11 11 10 9 8 9 9 8 8
4 2 3 2 8 9 9 10 11 12 15 8 9 10 6 10 9 7 9 6 9 2 5 7 5 12 4 4 4 4 5 6 7 9 8 8 12 15 15 15 16 15 15 17 18 14 15 13 12 13 16 17 17 15 15 12 13 11 10 11 10 10 9 10 11 12 12 11 12 11 12 12 12 12 12 12 11 12 10 10 10 9 8 9 9 8
1 1 4 4 3 6 3 4 5 6 5 5 8 12 8 7 9 8 2 2 9 3 4 6 12 11 14 13 4 4 6 8 9 10 11 11 13 15 16 16 16 14 13 17 17 13 14 14 13 13 16 17 18 17 14 14 14 12 9 10 9 9 11 11 11 11 12 12 12 12 13 12 12 11 11 11 11 10 10 10 9 9 9 8 9 9
0 2 5 6 6 8 7 7 2 2 9 13 10 11 10 10 8 9 9 9 6 5 8 5 5 3 16 15 6 6 7 6 7 9 10 11 14 16 16 17 16 15 14 13 15 18 17 16 14 14 16 18 17 17 17 14 14 15 13 10 8 8 9 9 12 12 11 12 11 12 12 11 11 11 10 10 10 10 10 9 9 9 8 8 9 9
2 2 2 3 5 6 7 10 7 4 6 5 10 10 12 12 10 13 8 2 8 8 6 2 4 6 12 13 6 3 7 9 9 10 11 12 13 15 16 18 17 17 16 15 16 16 16 16 14 14 15 16 17 16 13 12 11 13 14 13 10 9 9 12 13 12 12 11 11 11 11 11 10 9 10 11 11 10 10 9 9 8 8 8 8 6
2 2 2 3 8 9 10 10 8 9 6 6 9 13 14 13 14 13 11 6 7 3 1 7 5 12 14 10 6 2 3 7 8 10 10 14 17 18 18 18 18 18 17 16 16 17 18 20 19 17 17 15 16 18 13 12 11 11 12 12 11 10 9 11 12 12 12 12 11 11 12 11 10 10 10 11 11 11 10 9 9 8 8 8 8 7
2 0 2 2 6 10 12 12 8 11 10 9 10 10 12 12 12 13 12 8 3 7 5 5 6 10 12 0 2 3 5 6 9 13 15 16 17 18 19 18 15 18 18 17 17 18 18 18 19 17 17 18 17 17 14 13 12 11 12 12 12 11 11 11 12 11 12 12 11 12 12 11 11 11 11 11 11 10 10 10 8 8 8 8 8 8
3 2 0 3 5 7 3 3 2 7 8 9 10 12 11 12 12 9 9 6 7 8 8 5 8 7 13 5 3 2 7 9 12 14 15 16 17 18 18 17 16 18 20 20 19 18 17 19 21 21 21 20 20 20 15 15 13 11 12 12 14 12 11 11 12 13 11 10 11 12 13 11 12 12 11 11 11 11 10 9 9 9 8 8 8 8
4 2 1 0 4 6 3 3 6 9 7 1 9 14 14 12 7 4 2 4 10 11 7 6 9 13 2 3 3 3 6 7 9 14 15 16 18 18 17 19 21 21 21 21 20 20 19 18 20 21 21 20 17 17 18 15 14 13 12 11 10 10 11 10 12 12 12 11 12 12 11 12 12 12 11 11 11 10 9 10 9 9 9 9 8 8
3 3 3 1 2 5 7 3 8 7 4 7 1 5 13 14 12 12 9 9 8 7 6 7 10 3 2 4 8 8 12 12 9 9 9 15 18 18 20 20 21 21 19 19 19 19 20 18 18 18 20 19 16 16 16 15 15 13 12 12 11 10 8 10 10 10 12 12 12 11 11 12 12 12 11 11 11 10 10 10 9 8 7 8 8 8
3 2 2 1 2 4 3 3 5 3 6 2 1 3 8 11 13 15 12 13 10 9 4 7 10 12 4 4 6 5 5 1 1 6 10 15 17 18 21 20 20 21 20 19 19 17 19 18 16 12 13 15 16 13 13 12 12 13 14 14 14 12 11 10 11 9 10 11 10 10 11 11 11 12 12 12 11 10 10 9 8 9 7 8 8 9
2 2 1 1 1 1 1 3 2 2 3 3 5 3 0 5 1 6 8 4 6 12 12 10 11 4 5 6 5 4 4 3 4 8 12 16 14 15 18 19 20 20 21 20 22 20 18 17 17 18 16 13 13 11 11 12 12 13 13 12 14 12 11 11 12 11 10 10 11 11 11 12 11 11 11 11 10 10 9 9 9 9 7 7 6 6
4 2 1 2 2 2 1 1 2 4 1 2 2 3 5 7 10 11 7 9 8 7 10 12 6 3 4 4 2 4 4 4 4 6 12 14 14 13 17 17 20 21 19 19 18 17 13 10 10 12 12 12 12 12 12 11 13 12 11 10 9 13 13 12 11 10 11 10 9 8 9 9 8 8 7 7 10 9 9 9 8 7 7 7 7 7
1 5 1 1 1 0 3 0 0 2 4 2 2 3 1 2 4 2 5 5 2 5 7 8 7 6 6 4 6 6 7 5 3 6 11 14 12 10 9 9 13 15 18 17 15 12 12 12 12 12 12 13 12 13 12 14 13 12 11 12 10 11 12 12 10 8 10 10 11 13 13 14 14 12 9 9 10 10 8 6 6 6 7 8 9 8
3 2 2 2 2 1 1 0 1 2 1 1 2 2 2 1 4 4 4 8 3 7 8 9 8 7 9 9 8 7 6 5 5 4 7 12 14 13 12 12 13 14 16 18 20 18 16 15 16 15 15 16 16 15 15 15 15 12 11 12 12 12 12 13 10 11 10 12 12 13 14 13 13 14 13 12 7 6 8 8 7 6 6 6 7 8
2 1 1 2 3 1 1 1 2 2 2 1 2 2 3 1 4 5 7 4 6 6 7 8 9 9 9 8 10 8 5 4 4 2 5 14 14 13 14 16 17 17 17 17 17 17 16 15 15 16 17 18 18 17 15 15 14 13 13 13 13 13 13 13 11 10 10 11 12 12 12 12 15 14 14 9 8 7 6 6 6 6 6 6 6 7
1 1 0 4 1 1 1 1 2 1 2 3 3 5 0 4 3 6 6 1 3 3 6 7 6 7 9 9 6 6 3 4 5 6 2 12 12 12 11 11 14 16 17 19 18 16 15 15 17 18 18 15 16 16 16 14 13 14 12 12 13 14 14 12 11 12 12 12 13 13 11 9 11 13 12 12 13 11 10 7 7 6 6 7 6 7
1 1 1 0 0 0 1 1 1 2 2 2 3 5 3 4 5 3 2 1 1 0 3 5 5 7 7 8 7 2 1 4 6 2 6 11 12 11 12 13 12 12 11 14 15 16 15 15 15 15 16 14 16 15 14 14 13 12 11 10 12 13 11 13 13 11 13 14 13 12 12 14 11 11 12 11 10 10 9 9 9 9 8 7 8 9
2 1 2 1 1 2 2 1 1 3 1 3 9 1 1 1 1 2 1 1 2 3 1 3 4 7 8 8 4 5 1 1 1 2 6 7 8 10 12 13 14 15 15 14 15 17 15 15 15 16 15 15 17 16 16 16 16 13 11 12 13 9 11 13 13 14 13 13 13 12 12 11 13 12 9 10 10 11 11 10 10 9 8 8 9 9
3 1 1 1 2 1 1 1 1 1 6 3 4 0 1 1 3 3 2 2 2 2 1 2 2 5 6 5 7 4 3 2 2 3 5 6 6 7 8 10 11 11 12 13 16 16 16 15 15 15 15 15 15 15 15 16 14 12 12 13 9 9 10 11 13 13 12 12 13 12 11 11 12 11 10 12 11 10 10 10 8 7 6 7 8 8
4 2 2 2 1 1 1 3 4 4 5 4 2 3 3 4 2 2 2 1 2 2 2 2 4 5 7 6 4 4 3 3 3 5 6 9 9 10 11 12 13 14 14 15 16 15 15 15 16 15 15 14 16 14 14 14 14 14 14 10 11 11 12 13 13 13 11 11 10 11 11 10 10 11 11 9 10 10 9 9 10 10 9 10 9 9
1 0 1 2 3 3 3 4 4 6 3 6 3 4 4 4 3 0 2 2 3 2 2 3 3 5 6 6 5 4 3 4 4 4 2 5 7 7 8 8 8 8 10 12 12 13 14 14 15 15 15 14 15 13 12 12 13 15 13 11 12 12 12 13 14 13 13 12 10 11 12 11 10 9 9 10 10 11 11 11 11 10 9 9 9 10
1 3 2 2 1 0 2 3 1 6 5 5 6 5 2 4 5 3 3 3 1 2 2 2 2 3 5 6 3 3 3 4 3 3 3 4 6 9 11 11 11 11 12 13 12 13 13 14 14 15 15 15 14 12 12 12 11 12 11 12 12 13 13 12 14 12 12 14 12 10 11 13 10 9 10 11 11 10 10 10 10 9 9 9 9 10
1 0 2 2 2 0 1 1 3 2 5 6 1 6 7 9 9 6 3 2 1 1 2 2 2 4 3 4 2 4 4 2 3 4 3 4 6 8 10 11 13 12 10 10 12 14 13 13 15 16 15 14 15 14 13 12 10 9 11 11 12 12 13 11 12 13 12 13 12 12 11 10 13 13 10 11 10 10 10 10 10 11 11 11 11 11
1 3 1 1 1 0 2 2 1 1 5 7 6 5 4 4 7 8 6 3 2 4 5 6 6 4 4 5 2 4 6 4 2 3 5 5 6 7 9 10 11 13 13 11 13 13 13 13 14 15 15 13 13 13 12 12 10 11 13 12 13 13 13 12 13 11 12 10 9 10 10 9 12 11 10 11 10 10 10 11 11 10 9 10 10 11
1 3 0 1 0 1 3 4 4 3 1 4 1 2 7 6 7 8 5 8 8 8 6 6 6 4 5 4 4 5 7 4 3 3 4 4 5 7 8 8 9 11 12 11 10 12 11 12 13 14 14 12 12 12 12 11 10 12 13 13 13 13 13 11 10 10 11 10 11 8 10 9 9 9 9 9 10 10 8 7 10 9 10 10 11 14
2 2 3 1 0 1 1 5 1 4 2 1 1 2 4 5 4 4 5 4 5 4 5 5 7 7 8 6 4 5 5 4 3 3 4 3 3 4 6 9 10 10 12 12 12 14 12 12 12 13 13 11 12 12 12 11 12 13 13 14 14 15 14 14 11 9 8 10 10 12 11 9 9 10 9 9 10 10 10 8 5 3 2 6 10 12
Wind_Direction
164 201 193 200 202 200 198 198 162 41 9 122 113 167 198 187 135 124 195 174 193 178 203 198 196 179 178 182 189 192 184 199 204 204 204 205 206 202 203 206 210 212 210 189 182 185 192 194 198 192 183 174 168 173 185 175 172 162 145 138 124 107 117 128 115 121 137 139 139 137 131 127 128 124 119 116 104 99 101 99 95 94 94 99 98 90
196 215 217 212 211 196 165 186 253 273 10 167 176 181 180 192 192 179 192 163 202 197 188 177 189 187 183 183 186 190 183 196 198 199 205 206 206 206 205 212 215 213 192 171 182 193 196 194 194 179 184 168 160 164 169 172 173 151 139 126 122 138 146 147 150 158 166 159 156 148 142 133 132 132 126 118 105 101 93 84 83 83 80 82 83 81
202 217 221 195 111 137 164 193 204 231 180 28 188 177 179 192 165 168 207 172 186 212 181 168 192 191 184 183 183 190 196 199 203 205 203 202 202 205 206 213 212 204 204 190 197 195 201 199 193 180 180 170 167 164 144 178 162 153 148 133 135 153 161 157 161 164 169 164 151 141 139 135 115 51 78 102 99 97 90 78 76 73 71 73 78 78
207 229 181 150 145 166 179 191 197 215 231 245 187 179 194 164 172 182 192 116 137 220 157 173 188 170 197 197 194 195 195 200 203 207 208 203 206 208 208 208 204 204 198 195 195 198 199 199 190 184 177 169 159 155 162 177 165 171 156 131 123 139 161 171 169 164 154 149 138 131 128 111 118 125 107 96 92 91 88 74 69 69 71 76 85 84
196 24 159 172 181 188 179 181 190 201 217 217 236 215 174 159 191 178 159 136 121 55 150 141 163 182 203 200 204 205 206 208 210 215 214 209 210 209 207 209 206 201 198 195 195 196 199 200 194 188 176 165 169 172 167 172 169 172 158 129 136 161 175 168 160 149 132 124 107 93 84 99 99 113 126 113 91 81 88 91 70 72 75 84 86 80
229 289 177 175 187 185 178 181 194 194 210 203 227 225 202 182 169 108 129 143 173 175 190 157 161 220 191 208 202 183 192 211 209 212 213 210 207 194 199 206 205 204 194 195 194 196 198 199 190 179 173 174 177 176 142 136 169 137 109 130 163 171 166 158 153 142 140 144 142 134 131 134 139 138 143 133 130 126 103 95 97 84 80 83 80 84
212 195 183 189 176 187 189 195 190 190 201 203 212 201 186 111 132 146 160 170 183 200 189 239 212 192 153 203 199 187 194 202 195 207 210 208 204 197 203 205 206 205 192 196 191 192 194 197 182 174 177 177 171 137 131 156 130 127 151 158 166 160 157 153 153 153 153 154 153 150 144 140 146 137 89 84 95 108 103 104 97 92 81 84 93 89
175 206 213 206 187 186 193 199 185 187 191 205 134 163 183 189 131 143 173 204 199 38 112 193 233 223 196 214 194 192 197 202 201 200 205 197 194 199 206 209 209 204 204 201 197 195 197 194 184 181 178 173 157 134 136 143 145 158 163 166 164 158 155 157 159 163 162 156 157 136 111 119 129 127 128 119 102 97 111 105 98 97 88 85 88 94
176 198 207 192 206 194 201 195 157 192 193 178 129 148 169 188 183 151 153 165 148 181 188 201 173 216 224 142 180 189 200 208 211 202 204 200 197 202 207 203 196 193 206 212 204 204 199 196 191 180 174 169 143 135 158 157 157 155 160 165 168 158 156 159 162 165 161 147 121 132 143 136 113 121 121 118 114 110 107 102 97 95 96 91 85 88
195 204 200 201 194 205 182 138 166 186 193 147 157 130 113 153 171 206 205 154 144 201 211 194 184 214 176 147 183 195 207 205 208 208 210 211 210 210 208 208 205 192 195 203 198 199 197 198 189 178 168 167 149 140 167 151 150 150 158 173 173 151 154 156 160 167 157 132 134 141 130 125 136 128 124 124 122 119 117 107 106 108 109 108 100 90
348 208 196 180 206 197 159 165 160 182 199 127 140 155 124 120 145 95 77 170 160 222 226 182 181 213 226 186 195 187 209 200 196 208 215 216 219 219 216 204 198 198 196 199 199 190 189 188 182 170 171 171 149 149 159 151 149 151 167 180 165 154 156 159 163 167 154 134 136 133 138 141 142 142 136 130 127 127 124 123 123 117 112 109 106 101
252 171 180 195 178 176 179 160 176 183 174 166 187 194 168 180 130 166 117 204 210 234 162 150 184 186 228 191 205 204 167 194 193 199 206 213 215 214 209 203 199 199 193 191 198 193 189 188 184 175 171 165 159 150 157 151 151 160 174 168 160 161 160 158 159 158 153 143 138 139 141 140 147 147 145 138 135 140 137 136 130 126 119 114 109 104
257 226 181 159 188 190 179 175 175 185 175 192 172 188 187 174 181 187 173 189 217 223 75 175 150 168 231 212 174 194 205 192 198 204 207 210 213 210 207 191 198 201 183 183 197 189 189 191 185 173 173 167 161 158 160 153 157 167 174 172 159 163 165 160 156 157 153 140 141 138 140 139 142 142 139 138 137 142 143 143 140 137 129 127 119 113
211 245 204 180 174 202 193 181 166 188 191 189 183 183 185 182 181 190 198 211 109 55 95 173 166 227 60 238 204 199 201 197 197 207 212 209 207 200 189 181 182 188 197 195 196 191 187 183 178 173 175 171 162 161 157 152 154 164 178 172 159 165 163 160 156 151 144 136 142 155 142 143 141 136 133 132 137 141 140 144 138 137 136 129 123 123
154 185 195 172 190 176 202 202 180 186 182 191 199 194 195 187 184 179 192 190 203 156 101 182 169 232 180 204 174 193 203 207 208 210 211 214 208 181 167 176 187 191 204 201 194 192 183 175 169 171 174 169 164 163 154 155 158 163 180 171 165 163 166 162 159 147 146 153 161 135 131 134 135 130 126 128 133 138 139 133 130 129 126 123 124 122
189 152 123 189 43 170 198 186 143 150 182 193 168 345 202 202 39 161 55 119 120 131 101 169 214 292 170 66 357 234 204 207 211 218 218 218 203 167 173 183 195 202 202 196 194 194 181 172 169 171 169 169 167 169 158 158 159 165 176 174 161 155 165 165 160 158 154 150 147 142 135 138 131 129 125 121 127 131 131 130 131 127 121 120 121 119
126 192 110 190 254 181 187 163 185 185 184 171 173 203 199 89 106 90 70 29 41 136 196 122 252 233 296 218 45 160 181 199 206 213 211 207 188 177 188 195 198 202 204 195 191 192 183 171 169 176 169 165 167 171 167 162 163 169 170 168 150 144 170 153 156 153 153 142 136 135 138 136 135 139 142 140 138 131 124 124 125 124 122 121 120 122
182 157 104 186 194 212 191 182 186 200 89 121 204 182 71 46 18 159 178 107 201 202 179 168 209 165 171 183 101 134 183 192 194 202 200 195 183 187 196 198 197 196 201 194 186 184 181 178 174 170 173 165 165 167 163 164 163 164 167 159 146 157 175 163 150 147 143 142 136 138 140 138 141 138 128 129 134 131 127 126 123 125 129 127 124 125
280 186 185 199 191 172 118 194 193 214 247 213 198 106 182 172 194 250 125 174 176 200 178 188 253 241 206 206 143 185 193 194 202 194 189 187 189 200 202 200 193 191 197 194 188 183 178 178 177 170 166 163 160 164 162 160 160 157 152 148 147 164 167 157 148 145 149 153 144 145 145 138 133 129 126 125 127 129 133 135 136 133 127 125 129 131
295 219 155 202 201 150 170 186 196 191 187 338 109 182 24 296 212 158 211 31 215 186 182 205 166 227 189 211 189 187 195 198 193 182 189 190 193 200 202 194 188 191 196 188 186 180 178 178 179 174 163 162 156 155 157 155 157 156 147 145 142 149 146 153 156 153 147 154 142 125 127 132 134 132 134 137 137 136 137 138 136 133 133 134 133 133
342 314 175 148 199 152 194 193 200 185 176 178 192 192 170 216 350 275 114 222 196 183 196 211 223 213 178 210 206 211 199 193 180 187 194 194 197 200 196 186 186 192 191 183 179 176 171 174 175 173 166 161 159 149 151 154 155 150 146 144 135 147 155 154 151 144 140 141 141 139 140 136 133 135 136 136 136 133 136 137 137 137 133 131 133 136
269 332 35 118 172 195 180 116 141 188 190 192 194 191 190 169 168 183 208 90 147 232 194 186 239 352 210 185 198 205 202 198 193 187 191 194 199 197 186 181 177 185 186 177 173 172 169 172 171 170 167 164 158 152 154 158 149 145 151 148 151 150 160 155 149 146 139 141 142 142 139 137 133 137 140 136 136 136 139 142 139 136 136 134 134 141
174 41 1 108 166 173 115 157 200 196 195 179 183 180 179 183 221 200 205 178 124 178 19 360 340 229 94 313 285 280 26 217 204 197 190 195 199 185 174 177 178 184 177 175 167 172 168 166 168 167 159 158 155 155 156 154 151 153 136 144 155 152 156 154 151 142 140 144 144 137 133 135 140 141 141 138 139 142 141 139 137 141 138 137 137 137
150 257 267 188 60 277 287 305 338 203 167 158 215 186 177 197 201 221 207 81 205 137 216 196 259 251 145 205 272 246 237 180 186 202 205 157 150 164 167 180 180 178 173 167 164 164 164 160 162 158 153 153 157 161 158 155 154 142 145 147 153 156 151 149 150 143 143 139 137 138 139 143 144 146 145 143 145 144 143 142 140 142 139 137 139 136
185 212 262 128 136 135 130 128 171 193 197 208 200 186 200 175 173 111 90 79 217 216 216 197 240 264 127 235 129 148 158 175 186 191 183 167 173 178 181 180 174 168 167 166 161 153 150 156 159 158 158 157 159 156 159 156 154 142 143 147 149 151 152 149 148 142 140 140 138 142 143 146 150 149 148 145 145 145 145 143 141 143 142 139 138 136
225 155 183 175 146 157 174 184 192 191 201 194 201 183 181 176 161 149 199 183 217 77 194 221 248 264 235 122 92 115 153 169 186 178 178 171 168 177 178 173 167 164 171 173 169 157 158 158 161 159 159 163 165 162 161 149 149 152 148 151 149 149 158 150 145 143 138 144 144 148 150 151 154 154 151 147 145 147 147 144 145 143 143 145 139 140
212 152 216 265 244 190 151 30 16 64 69 198 190 199 175 196 187 201 45 182 212 136 213 201 236 271 296 280 182 160 172 180 176 173 176 166 172 177 172 167 165 167 168 174 173 161 156 160 164 161 161 166 167 165 161 156 154 149 145 147 149 157 157 150 144 147 145 151 150 150 155 157 157 152 150 148 147 146 146 147 147 147 145 146 144 146
120 251 220 238 256 273 286 273 328 310 206 196 181 188 170 179 188 197 199 209 113 145 223 190 255 257 262 274 262 164 184 190 183 179 168 170 177 174 172 164 162 165 167 166 169 168 164 162 162 163 162 162 164 167 169 166 158 154 156 155 156 162 163 147 146 151 152 152 150 151 155 157 153 150 148 145 145 147 147 146 146 145 141 143 146 150
205 250 350 174 261 262 250 258 262 236 253 239 196 165 183 187 185 204 213 155 176 215 221 143 218 226 264 265 311 93 187 186 183 190 188 176 169 169 164 162 168 173 168 163 166 163 160 162 166 165 162 163 165 163 154 153 152 154 156 153 159 161 169 147 150 155 156 156 152 153 153 149 147 145 141 143 145 145 146 148 144 142 143 147 146 145
243 270 232 219 286 287 275 263 234 222 216 227 224 183 181 182 194 200 209 192 202 238 214 256 267 259 264 282 37 350 167 154 152 163 163 169 171 169 171 169 172 172 168 163 159 162 168 171 169 167 167 162 161 165 156 156 157 156 151 151 154 163 167 151 155 156 157 158 154 150 151 149 145 146 145 147 149 150 149 146 144 144 146 149 149 147
234 231 40 20 327 292 285 277 243 208 202 216 219 212 185 185 187 197 203 193 163 257 285 299 290 284 275 32 294 93 135 124 147 171 176 176 172 172 173 174 173 171 169 165 169 170 170 168 169 165 165 167 167 165 161 158 154 154 156 157 154 165 170 161 155 157 159 157 153 150 149 149 151 149 150 151 149 149 149 147 145 147 148 147 149 151
196 258 286 324 300 291 308 302 246 184 187 209 209 201 196 177 189 192 206 167 176 213 226 231 257 266 268 93 69 140 147 169 171 175 172 174 177 175 175 174 169 173 175 177 174 172 171 172 172 172 174 173 173 172 164 165 158 158 160 164 161 162 168 167 161 160 160 149 147 150 153 152 151 151 151 152 152 152 149 145 148 150 150 149 153 157
181 123 303 211 290 277 321 354 133 129 122 228 239 213 190 191 172 143 187 156 203 198 190 205 236 240 313 75 201 212 191 189 184 180 177 173 175 175 170 175 181 182 181 181 176 176 177 173 176 176 175 175 172 168 168 159 156 165 160 162 160 145 162 163 161 158 155 153 153 154 152 152 153 151 150 155 152 148 146 150 152 153 154 158 159 157
138 201 243 81 275 287 334 5 151 140 183 219 291 186 179 185 177 176 191 192 210 176 207 219 239 262 55 221 219 205 200 204 198 190 186 172 164 173 182 180 182 184 182 182 179 178 178 178 180 179 177 174 167 166 160 163 160 157 154 156 153 152 153 163 162 156 156 158 159 155 152 152 153 151 152 151 150 148 151 156 158 155 154 150 155 160
154 177 230 145 262 280 2 292 169 174 222 30 351 289 202 194 181 185 194 202 196 206 256 271 262 258 240 232 256 290 281 295 173 166 178 178 176 176 179 183 183 183 182 181 180 178 179 178 171 156 162 164 162 155 152 156 158 153 159 161 160 162 161 171 169 163 157 157 154 150 151 153 149 151 152 152 150 152 155 156 149 153 155 158 164 164
176 210 143 224 226 279 232 200 196 206 7 19 18 49 25 94 284 193 205 225 210 208 209 231 243 288 274 238 231 247 214 154 165 180 180 185 189 179 176 182 184 183 183 184 182 178 172 171 170 170 171 160 151 154 154 157 156 157 161 163 162 161 162 166 171 170 160 153 156 157 156 151 149 146 144 147 150 154 155 154 156 158 157 156 156 154
149 105 153 279 156 275 324 264 261 325 324 75 114 188 180 163 165 179 196 220 189 200 193 226 244 243 236 230 184 160 147 142 171 206 203 194 190 187 181 178 180 185 184 184 180 175 162 140 136 145 142 150 159 153 158 155 159 158 149 156 164 166 165 164 166 165 164 157 146 122 99 82 86 89 113 147 153 157 158 155 155 152 154 152 155 153
3 256 113 355 291 275 282 309 264 183 199 161 345 24 338 339 72 50 185 226 171 206 206 212 222 207 193 175 174 164 169 159 222 235 201 199 188 182 182 167 171 175 179 176 169 148 150 147 150 153 154 152 157 158 153 156 161 158 155 167 165 167 170 174 172 149 151 135 124 139 143 144 149 158 159 162 171 162 153 146 140 147 159 162 163 167
91 90 155 222 262 226 221 272 246 187 78 3 341 347 335 221 159 160 177 216 175 187 201 211 219 202 182 168 171 174 175 190 227 231 168 181 185 179 170 177 174 171 174 175 174 167 164 160 158 156 155 158 164 166 163 160 158 153 160 165 169 173 172 179 172 166 146 143 146 153 158 158 153 157 165 177 164 144 148 153 155 158 166 167 163 163
17 303 251 233 222 234 119 226 256 223 78 32 267 306 322 161 165 158 203 207 156 194 198 203 212 190 178 170 161 185 214 208 248 323 158 177 178 171 168 168 173 174 176 177 179 176 163 152 146 157 165 170 170 161 159 161 161 162 169 173 172 175 179 180 167 149 137 140 152 157 149 161 170 168 164 155 140 144 147 144 143 158 164 163 168 163
266 305 201 255 248 157 254 310 276 259 264 264 294 311 131 217 212 182 203 128 135 175 195 204 209 182 166 160 161 171 282 280 310 338 198 162 165 173 170 164 167 167 169 176 174 164 160 161 168 172 171 169 161 161 165 165 164 172 174 168 173 183 184 169 149 148 148 153 159 163 156 150 157 162 166 162 165 161 151 153 155 157 168 168 168 163
158 258 304 290 212 208 92 307 311 318 287 334 306 295 243 168 159 203 91 11 9 189 154 201 193 166 159 156 161 120 189 284 303 291 156 164 172 167 163 164 161 164 160 167 158 163 166 167 169 168 166 163 159 161 163 164 169 174 172 171 183 184 169 151 148 143 149 156 162 164 163 170 168 161 160 161 154 155 151 163 167 171 175 177 166 165
149 211 265 265 116 94 59 6 301 140 99 71 323 30 7 288 36 358 299 51 267 305 217 185 184 158 167 163 126 122 150 296 350 106 147 157 154 154 159 163 163 166 166 162 163 171 163 168 168 166 162 161 164 166 169 169 172 173 165 181 188 162 147 148 151 151 153 159 165 169 170 164 160 159 154 153 156 158 165 164 165 162 173 170 164 165
122 255 279 245 219 336 108 67 306 312 313 15 327 53 46 339 322 298 297 58 332 289 326 120 181 162 168 156 159 143 145 119 69 133 149 156 154 148 157 163 163 162 163 168 170 169 165 167 168 167 164 165 167 168 169 172 170 167 171 189 160 145 137 141 149 151 153 160 165 163 168 166 161 161 163 160 161 162 153 159 155 146 161 171 165 164
183 241 202 317 221 248 10 192 283 332 296 314 276 312 274 305 274 269 299 356 79 76 285 50 113 156 169 159 170 189 180 212 172 176 164 176 168 167 168 171 171 171 170 171 173 167 168 168 166 163 164 166 167 169 170 174 170 168 182 170 148 151 146 151 152 150 154 159 161 165 162 159 160 163 164 165 161 161 163 159 153 161 181 176 174 170
351 188 80 187 238 236 237 254 318 290 315 339 289 259 300 341 8 300 293 85 46 23 343 62 108 137 166 179 178 195 193 157 171 188 208 160 163 164 158 153 156 157 163 166 163 164 174 165 162 164 165 167 170 170 169 175 168 174 183 154 155 151 145 147 152 157 160 161 158 163 161 160 161 158 155 158 166 167 170 170 171 172 173 178 176 173
169 145 205 237 278 272 114 143 147 317 324 339 334 356 56 26 12 334 355 36 34 19 76 56 72 126 148 171 176 108 127 159 144 131 141 144 151 168 176 169 167 163 164 168 163 161 173 162 167 167 163 164 168 169 171 174 180 178 152 148 153 153 150 151 157 155 158 163 161 158 164 165 162 154 160 167 171 176 176 178 177 169 167 179 179 177
84 100 260 219 190 237 241 358 15 332 267 270 357 8 355 345 346 5 353 342 347 73 57 43 176 107 153 105 101 94 88 106 131 131 138 151 158 169 174 175 172 170 169 157 154 168 164 166 170 170 165 167 170 175 175 177 175 148 138 144 145 150 151 150 160 164 165 160 162 165 166 168 164 162 164 174 174 173 180 183 183 180 182 180 183 182
336 301 296 237 217 268 334 273 285 100 16 349 352 35 2 341 332 337 354 352 334 61 69 79 64 56 51 77 119 103 99 82 80 127 133 143 159 166 174 173 172 173 169 159 164 169 166 168 167 166 167 169 170 171 172 173 157 145 147 148 149 150 152 158 163 162 163 160 154 159 164 166 170 173 165 174 177 184 184 180 182 188 190 190 182 183
212 232 85 239 167 150 197 187 181 137 187 270 313 21 307 334 345 316 340 17 12 13 12 39 55 74 87 63 31 39 68 82 96 123 128 139 151 159 163 156 164 167 168 163 162 170 166 168 164 164 167 165 165 170 170 162 150 153 155 155 154 153 153 152 151 157 164 164 166 155 165 168 171 169 167 167 178 178 181 188 197 198 183 191 204 195
255 218 185 261 220 58 29 278 124 352 6 27 43 13 299 313 305 310 19 353 0 6 341 12 36 36 42 43 46 40 51 68 86 99 99 110 129 140 152 154 162 167 169 164 163 175 169 168 166 164 164 157 165 170 167 162 157 157 160 159 161 160 157 156 157 161 159 164 172 173 172 168 164 175 173 177 179 177 173 169 180 64 284 242 185 185